Tracking 20721 objects as of 1-Jun-2020
HD Live streaming from Space Station
objects crossing your sky now

NOAA 16 DEB

Track NOAA 16 DEB now!
10-day predictions


NORAD ID: 41528
Int'l Code: 2000-055NC
Perigee: 820.2 km
Apogee: 864.2 km
Inclination: 98.8 °
Period: 101.6 minutes
Semi major axis: 7213 km
RCS: Unknown
Launch date: September 21, 2000
Source: United States (US)
Launch site: AIR FORCE WESTERN TEST RANGE (AFWTR)

Note: This is SATELLITE DEBRIS
aabbcc
Your satellite tracking list
Your tracking list is empty




NASA's NSSDC Master Catalog

Two Line Element Set (TLE):
1 41528U 00055NC  20151.43251906  .00001150  00000-0  58973-3 0  9991
2 41528  98.7931 220.0227 0030544 170.4312 189.7451 14.17129100216558
Source of the keplerian elements: AFSPC